Regional Weather Roundup
Issued by NWS

Home | Current Version | Previous Version | Graphics & Text | Print | Product List | Glossary On
Versions: 1 2 3 4 5 6 7 8 9 10 11 12 13 14 15 16 17 18 19 20 21 22 23 24 25 26 27 28 29 30 31 32 33 34 35 36 37 38 39 40 41 42 43 44 45 46 47 48 49 50
000
ASUS45 KABQ 011501
RWRNM
WEATHER ROUNDUP FOR NEW MEXICO
NATIONAL WEATHER SERVICE ALBUQUERQUE NM
900 AM MDT WED APR 01 2015

NOTE: "FAIR" MEANS FEW OR NO CLOUDS BELOW 12,000 FEET AGL WITH NO
       SIGNIFICANT WEATHER OR OBSTRUCTIONS TO VISION.

      THIS PRODUCT IS RELEASED AS TWO VERSIONS.  ONE VERSION NEAR
      THE TOP OF THE HOUR CONTAINING PRELIMINARY DATA FROM ALBUQUERQUE
      AND OTHER STATIONS.  A FINAL VERSION WITH ADDITIONAL DATA IS
      ISSUED ABOUT 10 MINUTES AFTER THE HOUR.

NMZ501-503-504-510>518-011600-
NORTHWEST PLATEAU/NORTHCENTRAL MOUNTAINS

CITY           SKY/WX    TMP DP  RH WIND       PRES   REMARKS
FARMINGTON     SUNNY     57  28  33 CALM      29.97S
SANTA FE       SUNNY     56  25  30 W10       30.03S
TAOS           PTSUNNY   48  25  40 E3        30.05S

$$
NMZ402-403-502-505>509-011600-
WESTCENTRAL MOUNTAINS/SOUTHWEST MOUNTAINS

CITY           SKY/WX    TMP DP  RH WIND       PRES   REMARKS
GALLUP         SUNNY     55  30  38 SW15      30.07F

$$
NMZ407-409-411-412-011600-
SOUTHERN DESERTS

CITY           SKY/WX    TMP DP  RH WIND       PRES   REMARKS
DEMING         SUNNY     60  42  51 W7        30.03R
ALAMOGORDO     MOSUNNY   59  43  55 SE6       30.01S
T OR C         SUNNY     56  38  50 VRB5      30.02R

$$
NMZ519>523-011600-
CENTRAL VALLEYS/CENTRAL HIGHLANDS

CITY           SKY/WX    TMP DP  RH WIND       PRES   REMARKS
ALBUQUERQUE    MOSUNNY   58  29  33 S6        30.02S
DOUBLE EAGLE   MOSUNNY   59  28  31 SW8       30.04R
CLINES CORNERS SUNNY     55  27  34 W16       30.04R
BELEN          FAIR      63  29  27 W5        30.02S
SOCORRO        NOT AVBL

$$
NMZ524>526-539-540-011600-
SOUTHCENTRAL MOUNTAINS

CITY           SKY/WX    TMP DP  RH WIND       PRES   REMARKS
RUIDOSO        NOT AVBL

$$
NMZ527>531-011600-
NORTHEAST HIGHLANDS/NORTHEAST PLAINS

CITY           SKY/WX    TMP DP  RH WIND       PRES   REMARKS
LAS VEGAS      SUNNY     57  26  30 W7        30.00S
RATON          CLOUDY    49  24  37 NE3       29.94S
CLAYTON        MOSUNNY   69  26  20 W16       29.84S

$$
NMZ532>537-011600-
EASTCENTRAL PLAINS

CITY           SKY/WX    TMP DP  RH WIND       PRES   REMARKS
TUCUMCARI      SUNNY     64  30  27 W5        29.85R
CANNON AFB     NOT AVBL
CLOVIS AIRPORT SUNNY     63  39  42 W14       29.87S

$$
NMZ028-029-538-011600-
SOUTHEAST PLAINS

CITY           SKY/WX    TMP DP  RH WIND       PRES   REMARKS
ROSWELL        SUNNY     60  43  53 CALM      29.91R
ARTESIA        SUNNY     68  41  37 SW8       29.92S
CARLSBAD       SUNNY     64  46  52 CALM      29.91R
HOBBS          SUNNY     64  45  48 SW7       29.93R


$$


USA.gov is the U.S. government's official web portal to all federal, state and local government web resources and services.